Weather History for Fort Myers, FL

Change the Weather History Date:

Thursday, September 12, 2013

  Actual Average Record
Temperature  
Mean Temperature 81 °F 83 °F  
Max Temperature 89 °F 91 °F 94 °F (1944)
Min Temperature 73 °F 75 °F 69 °F (1956)
Degree Days  
Heating Degree Days 0 0  
Month to date heating degree days 0 0  
Since 1 July heating degree days 0 0  
Cooling Degree Days 16 18  
Month to date cooling degree days 206 216  
Year to date cooling degree days 2924 2940  
Growing Degree Days 31 (Base 50)    
Moisture  
Dew Point 73 °F    
Average Humidity 85    
Maximum Humidity 100    
Minimum Humidity 59    
Precipitation  
Precipitation 0.77 in 0.29 in 2.06 in (1905)
Month to date precipitation 3.49 3.82  
Year to date precipitation 43.09 44.89  
Sea Level Pressure  
Sea Level Pressure 29.96 in    
Wind  
Wind Speed 4 mph (ENE)    
Max Wind Speed 23 mph    
Max Gust Speed 29 mph    
Visibility 9 miles    
Events Rain    
T = Trace of Precipitation, MM = Missing Value Source: NWS Daily Summary

Daily Weather History Graph

Daily Weather History Graph

Search for Another Location

Airport:

Trip Planner

Search our weather history database for the weather conditions in past years. The results will help you decide how hot, cold, wet, or windy it might be!

Date:

Astronomy

Sep. 12, 2013 Rise Set
Actual Time 7:11 AM EDT 7:34 PM EDT
Civil Twilight 6:48 AM EDT 7:58 PM EDT
Nautical Twilight 6:21 AM EDT 8:25 PM EDT
Astronomical Twilight 5:53 AM EDT 8:52 PM EDT
Moon 2:02 PM EDT (9/12) 12:06 AM EDT (9/12)
Length of Visible Light 13h 09m
Length of Day
12h 23m
Waxing Crescent, 50% of the Moon is Illuminated
Sep 12
Waxing Crescent
Sep 12
First Quarter
Sep 19
Full
Sep 26
Last Quarter
Oct 4
New

Hourly Weather History & Observations

Time (EDT) Temp. Heat Index Dew Point Humidity Pressure Visibility Wind Dir Wind Speed Gust Speed Precip Events Conditions
12:53 AM 77.0 °F - 73.9 °F 90% 30.01 in 10.0 mi ENE 3.5 mph - N/A   Partly Cloudy
1:53 AM 75.9 °F - 73.9 °F 94% 29.99 in 10.0 mi ENE 4.6 mph - N/A   Partly Cloudy
2:53 AM 75.9 °F - 73.9 °F 94% 29.99 in 10.0 mi Calm Calm - N/A   Clear
3:53 AM 75.9 °F - 73.9 °F 94% 29.98 in 7.0 mi Calm Calm - 0.00 in Rain Light Rain
4:53 AM 75.9 °F - 73.9 °F 94% 29.96 in 10.0 mi East 4.6 mph - 0.01 in   Mostly Cloudy
5:53 AM 75.0 °F - 73.9 °F 96% 29.98 in 10.0 mi Calm Calm - N/A   Scattered Clouds
6:53 AM 75.9 °F - 75.0 °F 97% 29.99 in 8.0 mi Calm Calm - 0.00 in Rain Light Rain
7:53 AM 75.9 °F - 75.0 °F 97% 29.99 in 9.0 mi ENE 3.5 mph - 0.04 in   Clear
8:53 AM 77.0 °F - 75.0 °F 94% 30.00 in 10.0 mi East 3.5 mph - N/A   Clear
9:25 AM 77.0 °F - 75.2 °F 94% 30.01 in 10.0 mi SE 5.8 mph - N/A   Partly Cloudy
9:53 AM 78.1 °F - 75.0 °F 90% 30.01 in 10.0 mi East 3.5 mph - N/A   Clear
10:53 AM 82.0 °F 88.6 °F 75.0 °F 79% 30.01 in 10.0 mi SSE 6.9 mph - N/A   Mostly Cloudy
11:53 AM 82.9 °F 88.8 °F 73.0 °F 72% 30.01 in 10.0 mi SE 5.8 mph - N/A   Scattered Clouds
12:53 PM 84.9 °F 90.1 °F 71.1 °F 63% 29.98 in 10.0 mi Variable 4.6 mph - N/A   Mostly Cloudy
1:53 PM 87.1 °F 94.5 °F 73.0 °F 63% 29.96 in 10.0 mi ENE 3.5 mph - N/A   Partly Cloudy
2:53 PM 84.9 °F 91.4 °F 73.0 °F 67% 29.94 in 10.0 mi West 8.1 mph - N/A   Overcast
3:06 PM 82.4 °F 89.5 °F 75.2 °F 79% 29.93 in 1.5 mi West 6.9 mph - 0.01 in Rain Rain
3:24 PM 78.8 °F - 66.2 °F 65% 29.93 in 0.2 mi North 10.4 mph 17.3 mph 0.35 in Rain Heavy Rain
3:40 PM 77.0 °F - 71.6 °F 83% 29.91 in 7.0 mi NNE 13.8 mph - 0.71 in Rain Light Rain
3:48 PM 78.8 °F - 71.6 °F 78% 29.90 in 7.0 mi NE 10.4 mph - 0.71 in   Overcast
3:53 PM 81.0 °F 85.2 °F 72.0 °F 74% 29.91 in 7.0 mi NE 8.1 mph - 0.71 in   Mostly Cloudy
4:53 PM 84.9 °F 91.4 °F 73.0 °F 67% 29.88 in 10.0 mi Variable 4.6 mph - N/A   Partly Cloudy
5:53 PM 87.1 °F 93.6 °F 72.0 °F 61% 29.90 in 10.0 mi Variable 5.8 mph - N/A   Partly Cloudy
6:33 PM 77.0 °F - 73.4 °F 89% 29.92 in 10.0 mi NE 20.7 mph 28.8 mph N/A   Mostly Cloudy
6:53 PM 75.9 °F - 73.0 °F 91% 29.94 in 10.0 mi NE 13.8 mph 19.6 mph N/A   Overcast
7:00 PM 75.2 °F - 73.4 °F 94% 29.93 in 10.0 mi ENE 12.7 mph - N/A   Overcast
7:53 PM 75.9 °F - 72.0 °F 87% 29.95 in 10.0 mi East 5.8 mph - N/A   Overcast
8:26 PM 75.2 °F - 73.4 °F 94% 29.96 in 10.0 mi NNE 9.2 mph - 0.00 in Rain Light Rain
8:53 PM 75.0 °F - 73.0 °F 94% 29.96 in 6.0 mi NNE 4.6 mph - 0.01 in Rain Light Rain
9:53 PM 75.0 °F - 73.0 °F 94% 29.93 in 10.0 mi SSE 4.6 mph - 0.00 in   Mostly Cloudy
10:53 PM 75.0 °F - 73.0 °F 94% 29.93 in 10.0 mi NE 4.6 mph - N/A   Clear
11:53 PM 73.9 °F - 73.0 °F 97% 29.92 in 10.0 mi Calm Calm - N/A   Clear